SITRO-AIS 52

Last updated on Sun May 04 2025 00:03:40 GMT+0000 (Coordinated Universal Time)

1 59063U 24039N 25123.13625138 .12984449 26572-5 36237-3 0 9995 2 59063 97.3875 99.8642 0009073 222.8016 137.2580 16.44855015 66155

Satellite not in orbit